Change the Weather History Date:

Thursday, March 21, 2013

  Actual Average Record
Temperature  
Mean Temperature 52 °F -  
Max Temperature 66 °F 66 °F 82 °F (1960)
Min Temperature 37 °F 44 °F 29 °F (1938)
Degree Days  
Heating Degree Days 14    
Growing Degree Days 2 (Base 50)    
Moisture  
Dew Point 26 °F    
Average Humidity 37    
Maximum Humidity 73    
Minimum Humidity 9    
Precipitation  
Precipitation 0.00 in - - ()
Sea Level Pressure  
Sea Level Pressure 30.11 in    
Wind  
Wind Speed 12 mph (NNW)    
Max Wind Speed 20 mph    
Max Gust Speed 26 mph    
Visibility 10 miles    
Events      
Averages and records for this station are not official NWS values.
T = Trace of Precipitation, MM = Missing Value Source: NWS Daily Summary

Daily Weather History Graph

Daily Weather History Graph

Search for Another Location

Airport or City:

Trip Planner

Search our weather history database for the weather conditions in past years. The results will help you decide how hot, cold, wet, or windy it might be!

Date:

Astronomy

Mar. 21, 2013 Rise Set
Actual Time 7:10 AM PDT 7:22 PM PDT
Civil Twilight 6:43 AM PDT 7:49 PM PDT
Nautical Twilight 6:11 AM PDT 8:21 PM PDT
Astronomical Twilight 5:39 AM PDT 8:53 PM PDT
Moon 1:57 PM PDT (3/21) 3:35 AM PDT (3/21)
Length of Visible Light 13h 06m
Length of Day
12h 12m
Waxing Gibbous, 69% of the Moon is Illuminated
Mar 21
Waxing Gibbous
Mar 27
Full
Apr 2
Last Quarter
Apr 10
New
Apr 18
First Quarter

Hourly Weather History & Observations

Time (PDT) Temp. Windchill Dew Point Humidity Pressure Visibility Wind Dir Wind Speed Gust Speed Precip Events Conditions
12:54 AM 51.1 °F - 33.1 °F 50% 30.10 in 10.0 mi North 10.4 mph - N/A   Mostly Cloudy
1:54 AM 48.0 °F - 30.9 °F 52% 30.11 in 10.0 mi North 9.2 mph - N/A   Clear
2:54 AM 46.9 °F - 30.9 °F 54% 30.12 in 10.0 mi NW 10.4 mph - N/A   Clear
3:54 AM 46.0 °F 41.4 °F 30.0 °F 54% 30.14 in 10.0 mi NNW 9.2 mph - N/A   Clear
4:54 AM 42.1 °F 37.1 °F 32.0 °F 67% 30.14 in 10.0 mi NW 8.1 mph - N/A   Clear
5:54 AM 42.1 °F 38.4 °F 30.9 °F 65% 30.14 in 10.0 mi NNW 5.8 mph - N/A   Clear
6:54 AM 39.0 °F 34.8 °F 30.9 °F 73% 30.16 in 10.0 mi North 5.8 mph - N/A   Clear
7:54 AM 41.0 °F 35.8 °F 32.0 °F 70% 30.16 in 10.0 mi North 8.1 mph - N/A   Clear
8:54 AM 46.9 °F - 30.9 °F 54% 30.16 in 10.0 mi North 9.2 mph - N/A   Clear
9:54 AM 53.1 °F - 30.0 °F 41% 30.17 in 10.0 mi North 16.1 mph 23.0 mph N/A   Clear
10:54 AM 55.0 °F - 28.9 °F 37% 30.16 in 10.0 mi North 19.6 mph - N/A   Clear
11:54 AM 57.9 °F - 28.9 °F 33% 30.15 in 10.0 mi North 16.1 mph 23.0 mph N/A   Clear
12:54 PM 61.0 °F - 28.0 °F 29% 30.14 in 10.0 mi North 18.4 mph - N/A   Clear
1:54 PM 63.0 °F - 24.1 °F 23% 30.12 in 10.0 mi NNW 17.3 mph 26.5 mph N/A   Clear
2:54 PM 64.9 °F - 19.0 °F 17% 30.09 in 10.0 mi North 18.4 mph 23.0 mph N/A   Clear
3:54 PM 66.0 °F - 14.0 °F 13% 30.07 in 10.0 mi NNW 19.6 mph 25.3 mph N/A   Clear
4:54 PM 66.0 °F - 21.0 °F 18% 30.05 in 10.0 mi NNW 15.0 mph - N/A   Clear
5:54 PM 64.9 °F - 21.9 °F 19% 30.04 in 10.0 mi NNW 12.7 mph - N/A   Clear
6:54 PM 63.0 °F - 18.0 °F 18% 30.04 in 10.0 mi NNW 15.0 mph - N/A   Clear
7:54 PM 57.9 °F - 18.0 °F 21% 30.05 in 10.0 mi NNW 10.4 mph - N/A   Clear
8:54 PM 57.0 °F - 19.0 °F 23% 30.08 in 10.0 mi North 16.1 mph 24.2 mph N/A   Clear
9:54 PM 54.0 °F - 23.0 °F 30% 30.10 in 10.0 mi NNW 12.7 mph - N/A   Clear
10:54 PM 53.1 °F - 21.9 °F 30% 30.12 in 10.0 mi NNW 16.1 mph 24.2 mph N/A   Clear
11:54 PM 52.0 °F - 21.0 °F 30% 30.12 in 10.0 mi North 17.3 mph - N/A   Clear